When you browse on this site, cookies collect data to enhance your experience and personalize the content and advertising you see.
Visit our Privacy Policy to learn more. By continuing to use the site, you agree to this use of cookies and data.
EN

Hourly Weather Sorata

Today, 28 September, Monday

Time Temperature Precipitation Wind Pressure Humidity
00:00 +10°C° 0 mm 2 mps 539 mmHg 88%
01:00 +10°C° 0 mm 2 mps 539 mmHg 89%
02:00 +10°C° 0 mm 2 mps 538 mmHg 89%
03:00 +10°C° 0 mm 2 mps 538 mmHg 89%
04:00 +11°C° 0 mm 1 mps 538 mmHg 88%
05:00 +12°C° 0 mm 2 mps 539 mmHg 84%
06:00 +13°C° 0 mm 2 mps 540 mmHg 81%
07:00 +14°C° 0 mm 2 mps 541 mmHg 75%
08:00 +14°C° 0.3 mm 3 mps 541 mmHg 74%
09:00 +16°C° 0.3 mm 3 mps 541 mmHg 73%
10:00 +15°C° 0.3 mm 4 mps 542 mmHg 72%
11:00 +17°C° 0.5 mm 4 mps 541 mmHg 73%
12:00 +17°C° 0.5 mm 4 mps 540 mmHg 74%
13:00 +16°C° 0.5 mm 5 mps 540 mmHg 75%
14:00 +15°C° 0.3 mm 5 mps 539 mmHg 78%
15:00 +14°C° 0.3 mm 5 mps 538 mmHg 82%
16:00 +13°C° 0.3 mm 5 mps 538 mmHg 86%
17:00 +13°C° 0.5 mm 4 mps 538 mmHg 88%
18:00 +12°C° 0.5 mm 4 mps 539 mmHg 91%
19:00 +12°C° 0.5 mm 4 mps 540 mmHg 94%
20:00 +11°C° 0.1 mm 3 mps 540 mmHg 92%
21:00 +12°C° 0.1 mm 2 mps 540 mmHg 90%
22:00 +12°C° 0.1 mm 2 mps 540 mmHg 88%
23:00 +12°C° 0 mm 1 mps 540 mmHg 88%

Tomorrow, 29 September, Tuesday

Time Temperature Precipitation Wind Pressure Humidity
00:00 +12°C° 0 mm 1 mps 540 mmHg 88%
01:00 +12°C° 0 mm 1 mps 540 mmHg 87%
02:00 +12°C° 0.1 mm 1 mps 540 mmHg 88%
03:00 +12°C° 0.1 mm 1 mps 540 mmHg 88%
04:00 +11°C° 0.1 mm 1 mps 540 mmHg 89%
05:00 +11°C° 0.2 mm 0 mps 540 mmHg 89%
06:00 +11°C° 0.2 mm 0 mps 541 mmHg 88%
07:00 +11°C° 0.2 mm 0 mps 541 mmHg 88%
08:00 +13°C° 0.3 mm 1 mps 541 mmHg 87%
09:00 +13°C° 0.3 mm 1 mps 542 mmHg 85%
10:00 +14°C° 0.3 mm 2 mps 542 mmHg 84%
11:00 +14°C° 0.2 mm 2 mps 541 mmHg 83%
12:00 +13°C° 0.2 mm 3 mps 541 mmHg 81%
13:00 +14°C° 0.2 mm 3 mps 540 mmHg 79%
14:00 +14°C° 0.2 mm 3 mps 540 mmHg 80%
15:00 +14°C° 0.2 mm 3 mps 540 mmHg 81%
16:00 +13°C° 0.2 mm 3 mps 539 mmHg 81%
17:00 +13°C° 0.1 mm 3 mps 539 mmHg 84%
18:00 +13°C° 0.1 mm 2 mps 539 mmHg 87%
19:00 +12°C° 0.1 mm 2 mps 540 mmHg 90%
20:00 +12°C° 0 mm 2 mps 540 mmHg 89%
21:00 +12°C° 0 mm 1 mps 540 mmHg 87%
22:00 +12°C° 0 mm 1 mps 541 mmHg 86%
23:00 +12°C° 0 mm 1 mps 540 mmHg 87%

Day after tomorrow, 30 September, Wednesday

Time Temperature Precipitation Wind Pressure Humidity
00:00 +11°C° 0 mm 1 mps 540 mmHg 87%
01:00 +11°C° 0 mm 1 mps 540 mmHg 87%
02:00 +11°C° 0 mm 1 mps 540 mmHg 87%
03:00 +11°C° 0 mm 1 mps 540 mmHg 86%
04:00 +11°C° 0 mm 1 mps 540 mmHg 85%
05:00 +12°C° 0 mm 1 mps 541 mmHg 79%
06:00 +13°C° 0 mm 0 mps 542 mmHg 74%
07:00 +14°C° 0 mm 0 mps 543 mmHg 68%
08:00 +16°C° 0.2 mm 1 mps 543 mmHg 67%
09:00 +17°C° 0.2 mm 2 mps 543 mmHg 66%
10:00 +18°C° 0.2 mm 3 mps 544 mmHg 66%
11:00 +17°C° 0.6 mm 3 mps 543 mmHg 69%
12:00 +17°C° 0.6 mm 3 mps 542 mmHg 72%
13:00 +17°C° 0.6 mm 4 mps 541 mmHg 74%
14:00 +16°C° 0.4 mm 3 mps 540 mmHg 76%
15:00 +16°C° 0.4 mm 3 mps 540 mmHg 78%
16:00 +14°C° 0.4 mm 3 mps 539 mmHg 80%
17:00 +13°C° 1.1 mm 3 mps 539 mmHg 83%
18:00 +14°C° 1.1 mm 2 mps 539 mmHg 87%
19:00 +13°C° 1.1 mm 2 mps 539 mmHg 91%
20:00 +13°C° 0.3 mm 2 mps 540 mmHg 89%
21:00 +13°C° 0.3 mm 1 mps 540 mmHg 87%
22:00 +13°C° 0.3 mm 1 mps 540 mmHg 85%
23:00 +13°C° 0 mm 1 mps 540 mmHg 86%

1 October, Thursday

Time Temperature Precipitation Wind Pressure Humidity
00:00 +11°C° 0 mm 0 mps 540 mmHg 88%
01:00 +11°C° 0 mm 0 mps 539 mmHg 89%
02:00 +11°C° 0 mm 0 mps 539 mmHg 89%
03:00 +10°C° 0 mm 0 mps 539 mmHg 89%
04:00 +10°C° 0 mm 0 mps 539 mmHg 88%
05:00 +12°C° 0 mm 1 mps 540 mmHg 83%
06:00 +14°C° 0 mm 1 mps 541 mmHg 78%
07:00 +15°C° 0 mm 1 mps 542 mmHg 72%
08:00 +16°C° 0.2 mm 2 mps 542 mmHg 71%
09:00 +17°C° 0.2 mm 3 mps 543 mmHg 69%
10:00 +18°C° 0.2 mm 3 mps 543 mmHg 68%
11:00 +18°C° 0.6 mm 4 mps 542 mmHg 69%
12:00 +18°C° 0.6 mm 4 mps 542 mmHg 70%
13:00 +18°C° 0.6 mm 4 mps 541 mmHg 71%
14:00 +17°C° 0.6 mm 4 mps 540 mmHg 74%
15:00 +15°C° 0.6 mm 4 mps 540 mmHg 77%
16:00 +15°C° 0.6 mm 5 mps 539 mmHg 80%
17:00 +14°C° 0.5 mm 4 mps 539 mmHg 84%
18:00 +13°C° 0.5 mm 3 mps 539 mmHg 88%
19:00 +12°C° 0.5 mm 3 mps 540 mmHg 92%
20:00 +13°C° 0 mm 2 mps 540 mmHg 90%
21:00 +13°C° 0 mm 2 mps 540 mmHg 89%
22:00 +13°C° 0 mm 1 mps 540 mmHg 88%
23:00 +13°C° 0 mm 1 mps 540 mmHg 88%

2 October, Friday

Time Temperature Precipitation Wind Pressure Humidity
00:00 +13°C° 0 mm 1 mps 540 mmHg 88%
01:00 +13°C° 0 mm 1 mps 539 mmHg 88%
02:00 +12°C° 0 mm 1 mps 539 mmHg 89%
03:00 +12°C° 0 mm 1 mps 539 mmHg 89%
04:00 +12°C° 0 mm 1 mps 539 mmHg 90%
05:00 +13°C° 0 mm 1 mps 540 mmHg 88%
06:00 +13°C° 0 mm 2 mps 540 mmHg 86%
07:00 +14°C° 0 mm 2 mps 541 mmHg 84%
08:00 +14°C° 0.2 mm 3 mps 542 mmHg 79%
09:00 +16°C° 0.2 mm 3 mps 542 mmHg 74%
10:00 +17°C° 0.2 mm 4 mps 543 mmHg 70%
11:00 +17°C° 0.3 mm 4 mps 542 mmHg 69%
12:00 +16°C° 0.3 mm 5 mps 542 mmHg 67%
13:00 +17°C° 0.3 mm 5 mps 542 mmHg 66%
14:00 +16°C° 0.1 mm 5 mps 541 mmHg 67%
15:00 +16°C° 0.1 mm 5 mps 541 mmHg 67%
16:00 +15°C° 0.1 mm 5 mps 540 mmHg 67%
17:00 +14°C° 0.1 mm 4 mps 540 mmHg 73%
18:00 +13°C° 0.1 mm 4 mps 540 mmHg 79%
19:00 +12°C° 0.1 mm 3 mps 540 mmHg 85%
20:00 +12°C° 0.1 mm 3 mps 541 mmHg 86%
21:00 +12°C° 0.1 mm 3 mps 541 mmHg 87%
22:00 +12°C° 0.1 mm 3 mps 542 mmHg 88%
23:00 +12°C° 0 mm 2 mps 541 mmHg 88%

3 October, Saturday

Time Temperature Precipitation Wind Pressure Humidity
00:00 +12°C° 0 mm 2 mps 541 mmHg 87%
01:00 +10°C° 0 mm 2 mps 540 mmHg 86%
02:00 +10°C° 0 mm 2 mps 540 mmHg 86%
03:00 +11°C° 0 mm 1 mps 540 mmHg 86%
04:00 +11°C° 0 mm 1 mps 541 mmHg 87%
05:00 +12°C° 0 mm 1 mps 541 mmHg 77%
06:00 +13°C° 0 mm 2 mps 542 mmHg 67%
07:00 +14°C° 0 mm 2 mps 543 mmHg 57%
08:00 +14°C° 0 mm 3 mps 544 mmHg 55%
09:00 +15°C° 0 mm 4 mps 544 mmHg 52%
10:00 +16°C° 0 mm 5 mps 545 mmHg 50%
11:00 +16°C° 0.3 mm 5 mps 544 mmHg 58%
12:00 +15°C° 0.3 mm 5 mps 543 mmHg 65%
13:00 +15°C° 0.3 mm 4 mps 542 mmHg 72%
14:00 +15°C° 0.2 mm 4 mps 542 mmHg 73%
15:00 +14°C° 0.2 mm 4 mps 541 mmHg 73%
16:00 +14°C° 0.2 mm 4 mps 541 mmHg 74%
17:00 +13°C° 0 mm 3 mps 541 mmHg 79%
18:00 +13°C° 0 mm 3 mps 541 mmHg 84%
19:00 +13°C° 0 mm 2 mps 541 mmHg 88%
20:00 +13°C° 0 mm 2 mps 541 mmHg 87%
21:00 +12°C° 0 mm 2 mps 541 mmHg 86%
22:00 +12°C° 0 mm 2 mps 542 mmHg 84%
23:00 +10°C° 0 mm 2 mps 541 mmHg 84%
Show more